KC9CW-13 Weather Reports


time (UTC)temp
C
wind
direction
speed
KPH
gust
KPH
rain 1hr
cm
rain 24hr
cm
rain mn
cm
humidity
%
barometer
mb
20260905191504 36 295 0.0 14.5 0.00 0.00 0.00 46 1011.6
20260905191004 35 312 1.6 14.5 0.00 0.00 0.00 46 1011.7
20260905190504 36 285 3.2 11.3 0.00 0.00 0.00 47 1011.8
20260905190008 36 352 0.0 4.8 0.00 0.00 0.00 47 1011.8
20260905185508 36 23 1.6 11.3 0.00 0.00 0.00 47 1011.9
20260905185012 36 350 4.8 11.3 0.00 0.00 0.00 47 1012.0
20260905184518 36 342 1.6 9.7 0.00 0.00 0.00 46 1012.0
20260905184010 36 324 1.6 12.9 0.00 0.00 0.00 46 1012.1
20260905183508 36 99 6.4 12.9 0.00 0.00 0.00 47 1012.2
20260905183017 36 315 1.6 8.0 0.00 0.00 0.00 46 1012.2
20260905182512 36 271 1.6 12.9 0.00 0.00 0.00 48 1012.2
20260905182012 36 360 3.2 12.9 0.00 0.00 0.00 47 1012.2
20260905181528 36 267 3.2 9.7 0.00 0.00 0.00 47 1012.3
20260905181015 36 9 1.6 8.0 0.00 0.00 0.00 47 1012.3
20260905180504 36 14 1.6 6.4 0.00 0.00 0.00 46 1012.3
20260905180003 36 321 0.0 9.7 0.00 0.00 0.00 50 1012.4
20260905175504 36 306 0.0 9.7 0.00 0.00 0.00 50 1012.5
20260905175008 35 123 1.6 4.8 0.00 0.00 0.00 52 1012.6
20260905174518 35 150 0.0 4.8 0.00 0.00 0.00 53 1012.5
20260905174011 35 174 0.0 4.8 0.00 0.00 0.00 50 1012.6
20260905173511 35 245 1.6 4.8 0.00 0.00 0.00 51 1012.7
20260905173016 35 153 0.0 4.8 0.00 0.00 0.00 52 1012.7
20260905172512 35 311 1.6 9.7 0.00 0.00 0.00 50 1012.8
20260905172012 35 97 1.6 9.7 0.00 0.00 0.00 53 1013.0
20260905171527 34 183 4.8 9.7 0.00 0.00 0.00 53 1013.2
20260905171011 35 352 1.6 6.4 0.00 0.00 0.00 56 1013.3
20260905170516 34 118 0.0 4.8 0.00 0.00 0.00 54 1013.3
20260905170026 34 177 1.6 6.4 0.00 0.00 0.00 53 1013.4
20260905165507 34 244 3.2 6.4 0.00 0.00 0.00 54 1013.4
20260905165008 33 262 1.6 6.4 0.00 0.00 0.00 55 1013.4
20260905164507 33 133 3.2 6.4 0.00 0.00 0.00 55 1013.5
20260905164004 33 190 1.6 9.7 0.00 0.00 0.00 56 1013.5
20260905163508 33 198 0.0 11.3 0.00 0.00 0.00 57 1013.5
20260905163012 33 173 1.6 11.3 0.00 0.00 0.00 57 1013.6
20260905162507 32 171 4.8 11.3 0.00 0.00 0.00 58 1013.5
20260905162013 32 202 6.4 11.3 0.00 0.00 0.00 58 1013.5
20260905161534 33 101 4.8 8.0 0.00 0.00 0.00 59 1013.6
20260905161012 33 139 3.2 6.4 0.00 0.00 0.00 60 1013.6
20260905160511 32 139 1.6 8.0 0.00 0.00 0.00 59 1013.6
20260905160028 33 48 1.6 8.0 0.00 0.00 0.00 59 1013.7
20260905155514 32 348 0.0 3.2 0.00 0.00 0.00 58 1013.9
20260905155013 32 63 0.0 4.8 0.00 0.00 0.00 60 1014.0
20260905154504 32 175 0.0 6.4 0.00 0.00 0.00 62 1014.0
20260905154009 32 39 0.0 9.7 0.00 0.00 0.00 60 1013.9
20260905153507 32 182 3.2 9.7 0.00 0.00 0.00 61 1013.9
20260905153014 32 343 1.6 6.4 0.00 0.00 0.00 61 1013.9
20260905152510 32 36 3.2 6.4 0.00 0.00 0.00 62 1013.9
20260905152007 32 44 1.6 4.8 0.00 0.00 0.00 62 1014.0
20260905151519 31 352 0.0 3.2 0.00 0.00 0.00 64 1014.0
20260905151012 32 160 0.0 4.8 0.00 0.00 0.00 64 1013.8
20260905150511 32 126 0.0 6.4 0.00 0.00 0.00 63 1013.8
20260905150037 31 126 3.2 6.4 0.00 0.00 0.00 65 1013.8
20260905145513 31 66 3.2 4.8 0.00 0.00 0.00 63 1013.9
20260905145014 31 41 0.0 6.4 0.00 0.00 0.00 64 1014.0
20260905144533 31 267 1.6 8.0 0.00 0.00 0.00 63 1013.9
20260905144017 31 349 0.0 8.0 0.00 0.00 0.00 64 1013.9
20260905143504 30 33 0.0 6.4 0.00 0.00 0.00 65 1014.1
20260905143008 30 341 0.0 3.2 0.00 0.00 0.00 65 1014.0
20260905142510 30 5 1.6 3.2 0.00 0.00 0.00 65 1013.8
20260905142013 31 223 0.0 4.8 0.00 0.00 0.00 66 1013.8
20260905141512 30 352 1.6 4.8 0.00 0.00 0.00 66 1013.9
20260905141010 30 5 1.6 4.8 0.00 0.00 0.00 66 1013.7
20260905140512 30 329 1.6 4.8 0.00 0.00 0.00 65 1013.7
20260905140023 30 346 1.6 9.7 0.00 0.00 0.00 66 1013.7
20260905135512 30 352 1.6 9.7 0.00 0.00 0.00 68 1013.6
20260905135014 29 200 0.0 4.8 0.00 0.00 0.00 70 1013.6
20260905134529 28 206 0.0 4.8 0.00 0.00 0.00 71 1013.7
20260905134016 28 169 0.0 3.2 0.00 0.00 0.00 72 1013.8
20260905133514 28 202 0.0 3.2 0.00 0.00 0.00 73 1013.8
20260905133030 28 184 1.6 3.2 0.00 0.00 0.00 74 1013.9
20260905132507 27 210 1.6 4.8 0.00 0.00 0.00 76 1013.8
20260905132008 27 161 1.6 4.8 0.00 0.00 0.00 76 1013.8
20260905131529 27 173 3.2 4.8 0.00 0.00 0.00 74 1013.8
20260905131010 27 185 1.6 4.8 0.00 0.00 0.00 75 1013.9
20260905130509 27 196 0.0 0.0 0.00 0.00 0.00 77 1013.9
20260905130019 27 225 0.0 3.2 0.00 0.00 0.00 77 1013.9
20260905125512 26 165 0.0 3.2 0.00 0.00 0.00 77 1014.0
20260905125014 26 178 0.0 3.2 0.00 0.00 0.00 77 1014.0
20260905124526 26 147 0.0 3.2 0.00 0.00 0.00 78 1014.0
20260905124015 26 153 0.0 3.2 0.00 0.00 0.00 78 1013.9
20260905123513 26 153 0.0 1.6 0.00 0.00 0.00 78 1013.8
20260905123038 26 240 0.0 0.0 0.00 0.00 0.00 77 1013.9
20260905122518 26 240 0.0 0.0 0.00 0.00 0.00 77 1014.0
20260905122016 26 240 0.0 0.0 0.00 0.00 0.00 77 1014.0
20260905121537 26 254 0.0 0.0 0.00 0.00 0.00 77 1013.8
20260905121019 -17 0.0 0.0 0.00 0.00 0.00 1013.8
20260905120520 -17 0.0 0.0 0.00 0.00 0.00 1013.7
20260905120048 -17 0.0 0.0 0.00 0.00 0.00 1013.7
20260905115519 -17 0.0 0.0 0.00 0.00 0.00 1013.8
20260905115018 -17 0.0 0.0 0.00 0.00 0.00 1013.7
20260905114535 -17 0.0 0.0 0.00 0.00 0.00 1013.6
20260905114018 -17 0.0 0.0 0.00 0.00 0.00 1013.5
20260905113519 -17 0.0 0.0 0.00 0.00 0.00 1013.5
20260905113037 -17 0.0 0.0 0.00 0.00 0.00 1013.4
20260905112520 -17 0.0 0.0 0.00 0.00 0.00 1013.4
20260905112021 -17 0.0 0.0 0.00 0.00 0.00 1013.4
20260905111545 -17 0.0 0.0 0.00 0.00 0.00 1013.3
20260905111019 -17 0.0 0.0 0.00 0.00 0.00 1013.3
20260905110518 -17 0.0 0.0 0.00 0.00 0.00 1013.1
20260905110039 -17 0.0 0.0 0.00 0.00 0.00 1013.1
20260905105521 -17 0.0 0.0 0.00 0.00 0.00 1013.1
20260905105021 -17 0.0 0.0 0.00 0.00 0.00 1013.0
20260905104551 -17 0.0 0.0 0.00 0.00 0.00 1013.1
20260905104019 -17 0.0 0.0 0.00 0.00 0.00 1013.0
20260905103518 -17 0.0 0.0 0.00 0.00 0.00 1013.0
20260905103039 -17 0.0 0.0 0.00 0.00 0.00 1013.1
20260905102521 -17 0.0 0.0 0.00 0.00 0.00 1013.2
20260905102018 -17 0.0 0.0 0.00 0.00 0.00 1013.3
20260905101538 -17 0.0 0.0 0.00 0.00 0.00 1013.3
20260905101015 -17 0.0 0.0 0.00 0.00 0.00 1013.2
20260905100521 -17 0.0 0.0 0.00 0.00 0.00 1013.3
20260905100036 -17 0.0 0.0 0.00 0.00 0.00 1013.2
20260905095518 -17 0.0 0.0 0.00 0.00 0.00 1013.2
20260905095019 -17 0.0 0.0 0.00 0.00 0.00 1013.3
20260905094620 -17 0.0 0.0 0.00 0.00 0.00 1013.2
20260905094020 -17 0.0 0.0 0.00 0.00 0.00 1013.2
20260905093520 -17 0.0 0.0 0.00 0.00 0.00 1013.1
20260905093037 -17 0.0 0.0 0.00 0.00 0.00 1013.0
20260905092517 -17 0.0 0.0 0.00 0.00 0.00 1013.0
20260905092023 -17 0.0 0.0 0.00 0.00 0.00 1013.0
20260905091539 -17 0.0 0.0 0.00 0.00 0.00 1012.9
20260905091018 -17 0.0 0.0 0.00 0.00 0.00 1012.9
20260905090522 -17 0.0 0.0 0.00 0.00 0.00 1012.9
20260905090037 -17 0.0 0.0 0.00 0.00 0.00 1012.8
20260905085517 27 306 0.0 0.0 0.00 0.00 0.00 73 1012.8
20260905085004 27 303 0.0 0.0 0.00 0.00 0.00 73 1012.6
20260905084505 27 285 0.0 0.0 0.00 0.00 0.00 73 1012.7
20260905084004 26 297 0.0 0.0 0.00 0.00 0.00 75 1012.7
20260905083504 26 279 0.0 0.0 0.00 0.00 0.00 76 1012.5
20260905083004 27 282 0.0 0.0 0.00 0.00 0.00 74 1012.5
20260905082504 26 282 0.0 0.0 0.00 0.00 0.00 75 1012.5
20260905082006 27 293 0.0 0.0 0.00 0.00 0.00 74 1012.5
20260905081504 27 303 0.0 0.0 0.00 0.00 0.00 75 1012.6
20260905081003 27 303 0.0 0.0 0.00 0.00 0.00 74 1012.7
20260905080506 27 303 0.0 0.0 0.00 0.00 0.00 75 1012.7
20260905080006 27 303 0.0 0.0 0.00 0.00 0.00 75 1012.7
20260905075504 27 311 0.0 0.0 0.00 0.00 0.00 76 1012.8
20260905075004 26 291 0.0 0.0 0.00 0.00 0.00 77 1012.7
20260905074504 26 275 0.0 0.0 0.00 0.00 0.00 78 1012.8
20260905074004 26 267 0.0 0.0 0.00 0.00 0.00 77 1012.8
20260905073507 27 202 0.0 0.0 0.00 0.00 0.00 76 1012.8
20260905073003 27 202 0.0 1.6 0.00 0.00 0.00 75 1012.9
20260905072505 27 202 0.0 1.6 0.00 0.00 0.00 76 1012.9
20260905072004 27 211 0.0 0.0 0.00 0.00 0.00 76 1013.0
20260905071504 27 188 0.0 0.0 0.00 0.00 0.00 76 1013.0
20260905071002 27 207 0.0 0.0 0.00 0.00 0.00 76 1013.1
20260905070502 27 207 0.0 0.0 0.00 0.00 0.00 77 1013.0
20260905070004 27 207 0.0 0.0 0.00 0.00 0.00 78 1012.9
20260905065508 27 207 0.0 0.0 0.00 0.00 0.00 78 1012.9
20260905065007 27 207 0.0 0.0 0.00 0.00 0.00 78 1012.9
20260905064504 27 188 0.0 0.0 0.00 0.00 0.00 78 1012.9
20260905064004 27 188 0.0 0.0 0.00 0.00 0.00 78 1012.9
20260905063504 27 188 0.0 0.0 0.00 0.00 0.00 78 1013.0
20260905063007 27 188 0.0 0.0 0.00 0.00 0.00 78 1013.1
20260905062504 27 188 0.0 0.0 0.00 0.00 0.00 80 1013.1
20260905062004 27 188 0.0 0.0 0.00 0.00 0.00 80 1013.2
20260905061506 27 188 0.0 0.0 0.00 0.00 0.00 79 1013.2
20260905061004 27 188 0.0 0.0 0.00 0.00 0.00 78 1013.2
20260905060503 27 188 0.0 0.0 0.00 0.00 0.00 77 1013.2
20260905060009 27 188 0.0 0.0 0.00 0.00 0.00 77 1013.3
20260905055503 27 188 0.0 0.0 0.00 0.00 0.00 76 1013.3
20260905055004 28 188 0.0 0.0 0.00 0.00 0.00 75 1013.4
20260905054513 28 188 0.0 0.0 0.00 0.00 0.00 75 1013.4
20260905054004 28 188 0.0 0.0 0.00 0.00 0.00 74 1013.5
20260905053504 28 188 0.0 0.0 0.00 0.00 0.00 74 1013.5
20260905053008 28 188 0.0 0.0 0.00 0.00 0.00 73 1013.6
20260905052504 28 188 0.0 0.0 0.00 0.00 0.00 73 1013.6
20260905052005 28 188 0.0 0.0 0.00 0.00 0.00 73 1013.5
20260905051525 28 267 0.0 0.0 0.00 0.00 0.00 74 1013.5
20260905051006 28 267 0.0 0.0 0.00 0.00 0.00 73 1013.5
20260905050506 28 267 0.0 0.0 0.00 0.00 0.00 74 1013.5
20260905050005 28 267 0.0 0.0 0.00 0.00 0.00 74 1013.4
20260905045506 28 274 0.0 0.0 0.00 0.00 0.00 75 1013.4
20260905045004 27 255 0.0 0.0 0.00 0.00 0.00 76 1013.4
20260905044510 28 242 0.0 0.0 0.00 0.00 0.00 75 1013.5
20260905044003 28 180 0.0 0.0 0.00 0.00 0.00 74 1013.4
20260905043504 28 180 0.0 0.0 0.00 0.00 0.00 73 1013.4
20260905043013 28 180 0.0 0.0 0.00 0.00 0.00 73 1013.4
20260905042504 28 180 0.0 0.0 0.00 0.00 0.00 73 1013.4
20260905042006 28 180 0.0 0.0 0.00 0.00 0.00 73 1013.4
20260905041508 28 180 0.0 0.0 0.00 0.00 0.00 74 1013.5
20260905041016 28 180 0.0 0.0 0.00 0.00 0.00 76 1013.6
20260905040505 28 180 0.0 0.0 0.00 0.00 0.00 77 1013.5
20260905040010 28 180 0.0 0.0 0.00 0.00 0.00 77 1013.6
20260905035506 27 180 0.0 0.0 0.00 0.00 0.00 78 1013.5
20260905035006 28 180 0.0 3.2 0.00 0.00 0.00 77 1013.5
20260905034509 28 180 0.0 3.2 0.00 0.00 0.00 77 1013.5
20260905034004 28 166 0.0 0.0 0.00 0.00 0.00 77 1013.6
20260905033506 27 166 0.0 0.0 0.00 0.00 0.00 79 1013.6
20260905033008 28 166 0.0 0.0 0.00 0.00 0.00 79 1013.5
20260905032508 28 166 0.0 4.8 0.00 0.00 0.00 77 1013.6
20260905032008 28 166 0.0 4.8 0.00 0.00 0.00 78 1013.6
20260905031514 28 180 0.0 0.0 0.00 0.00 0.00 78 1013.6
20260905031009 28 180 0.0 0.0 0.00 0.00 0.00 78 1013.6
20260905030505 28 180 0.0 0.0 0.00 0.00 0.00 77 1013.7
20260905030009 28 180 0.0 0.0 0.00 0.00 0.00 77 1013.7
20260905025505 28 180 0.0 0.0 0.00 0.00 0.00 77 1013.7
20260905025006 28 180 0.0 0.0 0.00 0.00 0.00 77 1013.7
20260905024525 28 180 0.0 0.0 0.00 0.00 0.00 76 1013.7
20260905024006 28 180 0.0 0.0 0.00 0.00 0.00 76 1013.7
20260905023508 28 180 0.0 0.0 0.00 0.00 0.00 76 1013.7
20260905023018 28 180 0.0 0.0 0.00 0.00 0.00 75 1013.6
20260905022507 29 180 0.0 0.0 0.00 0.00 0.00 75 1013.6
20260905022008 29 180 0.0 0.0 0.00 0.00 0.00 74 1013.6
20260905021510 29 180 0.0 0.0 0.00 0.00 0.00 74 1013.6
20260905021007 29 180 0.0 0.0 0.00 0.00 0.00 75 1013.6
20260905020510 29 180 0.0 0.0 0.00 0.00 0.00 75 1013.5
20260905020011 29 180 0.0 0.0 0.00 0.00 0.00 74 1013.5
20260905015506 29 180 0.0 0.0 0.00 0.00 0.00 73 1013.5
20260905015006 29 180 0.0 0.0 0.00 0.00 0.00 74 1013.5
20260905014512 30 180 0.0 0.0 0.00 0.00 0.00 72 1013.4
20260905014007 30 180 0.0 0.0 0.00 0.00 0.00 70 1013.3
20260905013508 30 180 0.0 0.0 0.00 0.00 0.00 67 1013.2
20260905013010 30 180 0.0 0.0 0.00 0.00 0.00 69 1013.2
20260905012508 30 180 0.0 0.0 0.00 0.00 0.00 68 1013.2
20260905012008 30 180 0.0 0.0 0.00 0.00 0.00 68 1013.2
20260905011512 30 180 0.0 0.0 0.00 0.00 0.00 68 1013.1
20260905011011 30 180 0.0 0.0 0.00 0.00 0.00 67 1013.1
20260905010510 31 180 0.0 0.0 0.00 0.00 0.00 64 1012.9
20260905010009 31 180 0.0 0.0 0.00 0.00 0.00 66 1012.9
20260905005510 31 180 0.0 0.0 0.00 0.00 0.00 65 1012.9
20260905005010 31 180 0.0 0.0 0.00 0.00 0.00 67 1012.8
20260905004512 31 180 0.0 0.0 0.00 0.00 0.00 66 1012.8
20260905004011 31 180 0.0 0.0 0.00 0.00 0.00 66 1012.7
20260905003507 31 180 0.0 0.0 0.00 0.00 0.00 66 1012.6
20260905003013 31 180 0.0 0.0 0.00 0.00 0.00 65 1012.7
20260905002511 32 180 0.0 0.0 0.00 0.00 0.00 62 1012.6
20260905002009 32 180 0.0 0.0 0.00 0.00 0.00 62 1012.5
20260905001513 32 180 0.0 0.0 0.00 0.00 0.00 62 1012.6
20260905001010 32 180 0.0 1.6 0.00 0.00 0.00 61 1012.7
20260905000508 33 180 0.0 4.8 0.00 0.00 0.00 60 1012.7
20260905000014 33 180 1.6 4.8 0.00 0.00 0.00 58 1012.7
20260904235510 33 247 0.0 0.0 0.00 0.00 0.00 57 1012.7
20260904235009 33 247 0.0 0.0 0.00 0.00 0.00 56 1012.7
20260904234511 34 247 0.0 0.0 0.00 0.00 0.00 55 1012.7
20260904234009 34 247 0.0 0.0 0.00 0.00 0.00 54 1012.7
20260904233507 34 247 0.0 0.0 0.00 0.00 0.00 52 1012.6
20260904233013 34 247 0.0 0.0 0.00 0.00 0.00 52 1012.6
20260904232509 35 247 0.0 0.0 0.00 0.00 0.00 50 1012.5
20260904232007 35 247 0.0 0.0 0.00 0.00 0.00 50 1012.5
20260904231518 35 247 0.0 0.0 0.00 0.00 0.00 47 1012.5
20260904231008 35 247 0.0 0.0 0.00 0.00 0.00 48 1012.5
20260904230510 35 247 0.0 0.0 0.00 0.00 0.00 46 1012.5
20260904230017 35 247 0.0 0.0 0.00 0.00 0.00 47 1012.5
20260904225513 35 244 0.0 0.0 0.00 0.00 0.00 45 1012.5
20260904225009 36 244 0.0 0.0 0.00 0.00 0.00 44 1012.5
20260904224515 36 215 0.0 3.2 0.00 0.00 0.00 44 1012.5
20260904224015 36 248 0.0 3.2 0.00 0.00 0.00 42 1012.5
20260904223510 36 280 1.6 3.2 0.00 0.00 0.00 41 1012.6
20260904223016 36 271 0.0 3.2 0.00 0.00 0.00 42 1012.7
20260904222514 36 248 1.6 3.2 0.00 0.00 0.00 41 1012.7
20260904222010 36 327 1.6 9.7 0.00 0.00 0.00 42 1012.7
20260904221517 36 279 1.6 9.7 0.00 0.00 0.00 42 1012.7
20260904221013 36 202 1.6 9.7 0.00 0.00 0.00 41 1012.7
20260904220510 37 303 1.6 9.7 0.00 0.00 0.00 41 1012.7
20260904220014 37 209 3.2 8.0 0.00 0.00 0.00 42 1012.8
20260904215511 37 334 3.2 12.9 0.00 0.00 0.00 41 1012.8
20260904215013 37 230 3.2 12.9 0.00 0.00 0.00 42 1012.8
20260904214518 37 327 1.6 8.0 0.00 0.00 0.00 41 1012.8
20260904214011 36 348 3.2 9.7 0.00 0.00 0.00 41 1012.8
20260904213511 36 335 3.2 9.7 0.00 0.00 0.00 42 1012.8
20260904213018 36 187 4.8 9.7 0.00 0.00 0.00 42 1012.8
20260904212512 36 196 4.8 11.3 0.00 0.00 0.00 43 1012.9
20260904212013 36 182 1.6 11.3 0.00 0.00 0.00 42 1012.9
20260904211517 37 260 4.8 11.3 0.00 0.00 0.00 41 1013.0
20260904211019 37 247 1.6 11.3 0.00 0.00 0.00 40 1013.0
20260904210511 36 159 4.8 11.3 0.00 0.00 0.00 41 1013.0
20260904210018 36 198 6.4 11.3 0.00 0.00 0.00 42 1013.1
20260904205513 36 201 0.0 11.3 0.00 0.00 0.00 43 1013.1
20260904205006 36 180 3.2 11.3 0.00 0.00 0.00 40 1013.2
20260904204510 37 266 3.2 9.7 0.00 0.00 0.00 41 1013.2
20260904204008 37 242 3.2 11.3 0.00 0.00 0.00 41 1013.3
20260904203503 37 321 4.8 11.3 0.00 0.00 0.00 41 1013.4
20260904203008 37 360 3.2 11.3 0.00 0.00 0.00 41 1013.4
20260904202503 37 338 3.2 11.3 0.00 0.00 0.00 41 1013.5
20260904202004 37 310 4.8 12.9 0.00 0.00 0.00 40 1013.6
20260904201506 37 146 6.4 12.9 0.00 0.00 0.00 40 1013.6
20260904201005 37 287 4.8 12.9 0.00 0.00 0.00 42 1013.5
20260904200512 37 349 3.2 11.3 0.00 0.00 0.00 42 1013.7
20260904200026 37 207 3.2 11.3 0.00 0.00 0.00 43 1013.8
20260904195511 37 162 3.2 14.5 0.00 0.00 0.00 43 1013.9
20260904195009 37 227 1.6 14.5 0.00 0.00 0.00 41 1014.1
20260904194508 37 96 1.6 11.3 0.00 0.00 0.00 41 1014.1
20260904194011 37 240 3.2 11.3 0.00 0.00 0.00 42 1014.1
20260904193508 37 209 4.8 11.3 0.00 0.00 0.00 42 1014.3
20260904193015 37 209 3.2 12.9 0.00 0.00 0.00 42 1014.4
20260904192504 37 216 3.2 12.9 0.00 0.00 0.00 42 1014.6
20260904192004 37 279 4.8 11.3 0.00 0.00 0.00 42 1014.6